�������l�o���
Date,Time,MP-1(��Sv/h),MP-2(��Sv/h),MP-3(��Sv/h),MP-4(��Sv/h),MP-5(��Sv/h),MP-6(��Sv/h),MP-7(��Sv/h),MP-8(��Sv/h),����,����(m/s),���J
2020/11/07,00:00,0.663,0.957,0.608,1.184,0.849,0.386,0.673,0.633,�k�k��,0.6,��
2020/11/07,00:10,0.665,0.957,0.606,1.184,0.850,0.386,0.672,0.633,-,CALM,��
2020/11/07,00:20,0.663,0.956,0.606,1.187,0.851,0.387,0.673,0.634,��,0.8,��
2020/11/07,00:30,0.664,0.959,0.605,1.187,0.852,0.385,0.671,0.634,�k�k��,0.6,��
2020/11/07,00:40,0.665,0.957,0.607,1.184,0.850,0.386,0.672,0.634,�쐼,0.6,��
2020/11/07,00:50,0.663,0.957,0.607,1.186,0.851,0.385,0.674,0.635,���쐼,1.2,��
2020/11/07,01:00,0.665,0.957,0.606,1.185,0.853,0.386,0.673,0.633,���쐼,2.5,��
2020/11/07,01:10,0.665,0.957,0.605,1.185,0.851,0.384,0.674,0.634,���쐼,2.2,��
2020/11/07,01:20,0.664,0.958,0.605,1.185,0.851,0.387,0.672,0.635,���쐼,1.2,��
2020/11/07,01:30,0.664,0.957,0.607,1.186,0.851,0.384,0.672,0.633,���k��,0.9,��
2020/11/07,01:40,0.665,0.957,0.606,1.186,0.851,0.385,0.673,0.633,�쐼,1.5,��
2020/11/07,01:50,0.663,0.958,0.607,1.188,0.852,0.385,0.672,0.634,��쐼,0.8,��
2020/11/07,02:00,0.665,0.955,0.605,1.187,0.851,0.386,0.671,0.632,-,CALM,�L
2020/11/07,02:10,0.666,0.957,0.606,1.186,0.850,0.386,0.672,0.634,�쓌,0.6,��
2020/11/07,02:20,0.664,0.958,0.607,1.186,0.852,0.387,0.673,0.633,�쓌,1.2,�L
2020/11/07,02:30,0.664,0.957,0.608,1.188,0.850,0.386,0.672,0.635,�쓌,0.6,��
2020/11/07,02:40,0.664,0.956,0.607,1.186,0.851,0.385,0.674,0.633,��쐼,0.9,��
2020/11/07,02:50,0.666,0.956,0.606,1.186,0.851,0.385,0.672,0.632,�쐼,0.6,��
2020/11/07,03:00,0.664,0.958,0.606,1.187,0.852,0.387,0.673,0.635,-,CALM,��
2020/11/07,03:10,0.665,0.956,0.607,1.186,0.850,0.386,0.672,0.632,��쓌,2.5,��
2020/11/07,03:20,0.667,0.956,0.608,1.185,0.852,0.387,0.670,0.633,��쓌,3.0,�L
2020/11/07,03:30,0.663,0.956,0.607,1.184,0.853,0.386,0.674,0.634,��쓌,2.0,��
2020/11/07,03:40,0.664,0.955,0.606,1.186,0.853,0.387,0.671,0.634,��쐼,3.8,��
2020/11/07,03:50,0.663,0.957,0.607,1.187,0.851,0.386,0.673,0.632,��,3.6,��
2020/11/07,04:00,0.666,0.959,0.606,1.187,0.850,0.385,0.673,0.634,��,3.2,��
2020/11/07,04:10,0.664,0.958,0.609,1.185,0.850,0.384,0.674,0.634,��,4.2,��
2020/11/07,04:20,0.664,0.959,0.607,1.184,0.850,0.386,0.674,0.634,��,3.7,��
2020/11/07,04:30,0.665,0.957,0.606,1.188,0.851,0.384,0.672,0.633,��쐼,1.1,��
2020/11/07,04:40,0.664,0.955,0.606,1.189,0.849,0.385,0.672,0.635,�k�k��,1.2,��
2020/11/07,04:50,0.664,0.957,0.606,1.186,0.852,0.386,0.672,0.634,�k��,3.8,��
2020/11/07,05:00,0.664,0.959,0.608,1.188,0.852,0.384,0.671,0.634,�k��,3.9,��
2020/11/07,05:10,0.666,0.959,0.607,1.186,0.851,0.387,0.673,0.633,�k��,4.6,��
2020/11/07,05:20,0.664,0.960,0.607,1.187,0.851,0.386,0.673,0.632,�k��,4.9,��
2020/11/07,05:30,0.665,0.958,0.608,1.186,0.851,0.385,0.671,0.634,�k�k��,5.5,��
2020/11/07,05:40,0.666,0.958,0.607,1.184,0.853,0.387,0.674,0.634,�k�k��,4.3,��
2020/11/07,05:50,0.665,0.956,0.609,1.188,0.850,0.385,0.672,0.633,�k�k��,4.0,��
2020/11/07,06:00,0.665,0.956,0.609,1.187,0.851,0.384,0.673,0.634,�k�k��,4.0,��
2020/11/07,06:10,0.664,0.958,0.607,1.185,0.850,0.385,0.673,0.635,�k�k��,4.0,��
2020/11/07,06:20,0.666,0.956,0.608,1.186,0.851,0.385,0.674,0.634,�k�k��,3.4,��
2020/11/07,06:30,0.665,0.957,0.608,1.187,0.850,0.385,0.674,0.634,�k��,3.3,��
2020/11/07,06:40,0.666,0.956,0.608,1.186,0.852,0.388,0.672,0.633,�k��,4.9,��
2020/11/07,06:50,0.666,0.955,0.608,1.188,0.852,0.385,0.673,0.634,�k��,4.7,��
2020/11/07,07:00,0.665,0.957,0.607,1.186,0.852,0.385,0.673,0.634,�k��,2.9,��
2020/11/07,07:10,0.665,0.957,0.607,1.185,0.852,0.385,0.673,0.634,��,2.6,��
2020/11/07,07:20,0.664,0.957,0.606,1.186,0.852,0.385,0.673,0.633,���k��,2.0,��
2020/11/07,07:30,0.666,0.957,0.608,1.188,0.850,0.386,0.674,0.635,�k��,1.2,��
2020/11/07,07:40,0.665,0.957,0.608,1.188,0.851,0.388,0.672,0.634,���k��,1.2,��
2020/11/07,07:50,0.666,0.958,0.607,1.187,0.850,0.386,0.671,0.634,��,1.1,��
2020/11/07,08:00,0.665,0.957,0.608,1.186,0.851,0.386,0.673,0.636,���k��,1.1,��
2020/11/07,08:10,0.665,0.956,0.608,1.189,0.852,0.384,0.672,0.635,���쐼,1.4,��
2020/11/07,08:20,0.666,0.959,0.610,1.188,0.850,0.386,0.672,0.633,���k��,1.7,��
2020/11/07,08:30,0.667,0.957,0.611,1.187,0.851,0.386,0.674,0.634,��,1.4,��
2020/11/07,08:40,0.668,0.957,0.610,1.187,0.852,0.385,0.671,0.635,��,0.9,��
2020/11/07,08:50,0.667,0.961,0.610,1.189,0.852,0.386,0.671,0.635,��쓌,1.4,��
2020/11/07,09:00,0.667,0.960,0.611,1.188,0.852,0.386,0.672,0.634,�쓌,1.5,��
2020/11/07,09:10,0.667,0.957,0.610,1.189,0.853,0.385,0.673,0.636,��쓌,2.3,��
2020/11/07,09:20,0.668,0.958,0.612,1.189,0.852,0.386,0.672,0.634,��,1.7,��
2020/11/07,09:30,0.667,0.957,0.613,1.188,0.852,0.386,0.673,0.633,��,1.2,��
2020/11/07,09:40,0.666,0.956,0.610,1.189,0.854,0.385,0.673,0.633,��,1.4,��
2020/11/07,09:50,0.668,0.955,0.611,1.189,0.852,0.387,0.673,0.634,�쓌,2.0,��
2020/11/07,10:00,0.664,0.956,0.613,1.190,0.855,0.386,0.673,0.632,�쓌,1.9,��
2020/11/07,10:10,0.666,0.954,0.612,1.189,0.853,0.386,0.674,0.632,��쓌,2.6,��
2020/11/07,10:20,0.668,0.955,0.611,1.189,0.853,0.385,0.674,0.634,�쓌,4.1,��
2020/11/07,10:30,0.667,0.957,0.612,1.190,0.853,0.385,0.674,0.634,��쓌,2.6,��
2020/11/07,10:40,0.667,0.956,0.609,1.189,0.851,0.385,0.674,0.632,��쓌,3.4,��
2020/11/07,10:50,0.666,0.958,0.609,1.189,0.853,0.385,0.674,0.634,��,2.6,��
2020/11/07,11:00,0.667,0.959,0.610,1.189,0.850,0.387,0.675,0.633,��,1.5,��
2020/11/07,11:10,0.668,0.957,0.609,1.189,0.850,0.385,0.675,0.636,��,2.5,��
2020/11/07,11:20,0.667,0.959,0.609,1.190,0.854,0.386,0.674,0.633,��쓌,2.8,��
2020/11/07,11:30,0.667,0.958,0.610,1.189,0.851,0.385,0.674,0.633,�쓌,3.2,��
2020/11/07,11:40,0.668,0.960,0.607,1.190,0.852,0.385,0.675,0.633,��쓌,3.5,��
2020/11/07,11:50,0.666,0.960,0.608,1.189,0.853,0.386,0.675,0.634,��쓌,3.8,��
2020/11/07,12:00,0.666,0.961,0.610,1.189,0.854,0.384,0.675,0.634,�쓌,4.8,��
2020/11/07,12:10,0.667,0.961,0.609,1.189,0.852,0.385,0.676,0.633,��쓌,5.5,��
2020/11/07,12:20,0.668,0.962,0.609,1.189,0.856,0.386,0.675,0.633,��쓌,5.4,��
2020/11/07,12:30,0.667,0.963,0.609,1.191,0.854,0.386,0.676,0.632,��쓌,3.7,��
2020/11/07,12:40,0.666,0.963,0.609,1.189,0.853,0.387,0.675,0.633,��,4.7,��
2020/11/07,12:50,0.668,0.962,0.610,1.192,0.855,0.386,0.675,0.633,��,4.9,��
2020/11/07,13:00,0.669,0.963,0.609,1.188,0.853,0.386,0.675,0.633,��쓌,6.1,��
2020/11/07,13:10,0.668,0.961,0.609,1.190,0.855,0.386,0.676,0.632,��쓌,5.1,��
2020/11/07,13:20,0.668,0.961,0.611,1.190,0.854,0.386,0.675,0.634,��,3.0,��
2020/11/07,13:30,0.669,0.963,0.611,1.190,0.856,0.386,0.674,0.633,��쓌,3.6,��
2020/11/07,13:40,0.668,0.963,0.610,1.192,0.855,0.384,0.675,0.632,��쓌,5.0,��
2020/11/07,13:50,0.668,0.964,0.610,1.191,0.856,0.387,0.674,0.633,��쓌,5.3,��
2020/11/07,14:00,0.667,0.963,0.612,1.188,0.855,0.386,0.674,0.634,��쓌,5.4,��
2020/11/07,14:10,0.666,0.963,0.610,1.189,0.854,0.385,0.676,0.633,��쓌,5.0,��
2020/11/07,14:20,0.666,0.962,0.611,1.191,0.855,0.386,0.675,0.633,��쓌,4.8,��
2020/11/07,14:30,0.668,0.965,0.611,1.190,0.856,0.386,0.675,0.632,��쓌,5.5,��
2020/11/07,14:40,0.668,0.965,0.611,1.193,0.855,0.385,0.675,0.635,��쓌,6.3,��
2020/11/07,14:50,0.669,0.964,0.610,1.192,0.855,0.385,0.675,0.632,��,5.4,��
2020/11/07,15:00,0.668,0.965,0.610,1.191,0.854,0.386,0.674,0.633,��,6.3,��
2020/11/07,15:10,0.667,0.964,0.610,1.188,0.854,0.385,0.674,0.632,��,6.0,��
2020/11/07,15:20,0.667,0.962,0.609,1.190,0.854,0.386,0.675,0.633,��,5.3,��
2020/11/07,15:30,0.667,0.965,0.608,1.192,0.852,0.385,0.674,0.634,��,5.5,��
2020/11/07,15:40,0.668,0.964,0.609,1.191,0.853,0.386,0.674,0.632,��,4.7,��
2020/11/07,15:50,0.667,0.965,0.610,1.192,0.854,0.386,0.675,0.633,��,4.3,��
2020/11/07,16:00,0.669,0.965,0.611,1.191,0.853,0.387,0.674,0.634,��쐼,3.4,��
2020/11/07,16:10,0.668,0.965,0.612,1.191,0.854,0.386,0.676,0.632,��쐼,2.3,��
2020/11/07,16:20,0.669,0.969,0.613,1.192,0.854,0.389,0.675,0.634,��,2.0,��
2020/11/07,16:30,0.669,0.966,0.613,1.190,0.856,0.387,0.675,0.634,��,2.0,��
2020/11/07,16:40,0.670,0.965,0.614,1.191,0.856,0.387,0.675,0.633,��쓌,1.2,��
2020/11/07,16:50,0.670,0.967,0.614,1.191,0.855,0.387,0.674,0.633,-,CALM,��
2020/11/07,17:00,0.671,0.967,0.613,1.191,0.857,0.387,0.674,0.633,-,CALM,��
2020/11/07,17:10,0.670,0.965,0.615,1.191,0.857,0.387,0.673,0.633,�쓌,1.1,��
2020/11/07,17:20,0.671,0.965,0.612,1.192,0.857,0.388,0.674,0.633,��,0.8,��
2020/11/07,17:30,0.670,0.967,0.613,1.191,0.856,0.388,0.674,0.634,�k�k��,1.2,��
2020/11/07,17:40,0.672,0.967,0.614,1.192,0.857,0.389,0.674,0.634,�k,0.9,�L
2020/11/07,17:50,0.672,0.966,0.613,1.189,0.857,0.387,0.673,0.635,�k��,0.6,�L
2020/11/07,18:00,0.672,0.966,0.615,1.189,0.857,0.389,0.674,0.634,�쓌,0.6,�L
2020/11/07,18:10,0.671,0.965,0.615,1.191,0.857,0.389,0.674,0.633,�쓌,1.4,�L
2020/11/07,18:20,0.669,0.966,0.615,1.193,0.857,0.388,0.673,0.633,�쓌,1.5,��
2020/11/07,18:30,0.672,0.966,0.611,1.189,0.857,0.388,0.675,0.633,�쓌,1.4,��
2020/11/07,18:40,0.671,0.964,0.612,1.191,0.855,0.389,0.675,0.634,-,CALM,��
2020/11/07,18:50,0.671,0.963,0.613,1.190,0.855,0.388,0.676,0.636,�쓌,0.9,��
2020/11/07,19:00,0.668,0.964,0.612,1.191,0.853,0.388,0.676,0.635,-,CALM,��
2020/11/07,19:10,0.669,0.963,0.613,1.191,0.857,0.389,0.676,0.634,�k�k��,0.9,��
2020/11/07,19:20,0.670,0.966,0.613,1.189,0.855,0.389,0.674,0.635,�k��,0.6,��
2020/11/07,19:30,0.670,0.963,0.612,1.191,0.854,0.388,0.675,0.635,�k�k��,1.1,��
2020/11/07,19:40,0.671,0.962,0.612,1.191,0.855,0.388,0.676,0.637,-,CALM,��
2020/11/07,19:50,0.671,0.963,0.612,1.189,0.855,0.388,0.675,0.636,��쐼,0.6,��
2020/11/07,20:00,0.672,0.964,0.613,1.192,0.853,0.387,0.675,0.636,�쐼,0.9,��
2020/11/07,20:10,0.669,0.961,0.612,1.192,0.857,0.388,0.676,0.635,�k�k��,1.4,��
2020/11/07,20:20,0.669,0.963,0.610,1.191,0.855,0.388,0.676,0.633,�k�k��,2.8,��
2020/11/07,20:30,0.671,0.964,0.612,1.192,0.855,0.386,0.675,0.635,�k�k��,3.4,��
2020/11/07,20:40,0.670,0.962,0.612,1.191,0.856,0.389,0.674,0.634,�k��,3.4,��
2020/11/07,20:50,0.669,0.962,0.613,1.190,0.858,0.388,0.674,0.636,�k��,3.7,��
2020/11/07,21:00,0.669,0.962,0.612,1.194,0.856,0.387,0.674,0.634,�k�k��,4.2,��
2020/11/07,21:10,0.669,0.964,0.611,1.191,0.857,0.388,0.675,0.635,�k��,4.6,��
2020/11/07,21:20,0.670,0.962,0.614,1.191,0.856,0.390,0.676,0.636,�k��,5.1,��
2020/11/07,21:30,0.670,0.963,0.612,1.189,0.858,0.387,0.675,0.636,�k��,6.7,�L
2020/11/07,21:40,0.669,0.963,0.612,1.193,0.856,0.388,0.674,0.637,�k��,7.4,�L
2020/11/07,21:50,0.672,0.961,0.613,1.191,0.855,0.387,0.675,0.636,���k��,5.6,��
2020/11/07,22:00,0.669,0.962,0.613,1.191,0.855,0.387,0.674,0.639,�k��,3.9,��
2020/11/07,22:10,0.670,0.962,0.613,1.192,0.856,0.388,0.674,0.636,���k��,3.6,��
2020/11/07,22:20,0.670,0.963,0.612,1.193,0.856,0.387,0.674,0.634,�k��,4.5,��
2020/11/07,22:30,0.669,0.962,0.612,1.193,0.854,0.388,0.674,0.635,�k��,4.9,��
2020/11/07,22:40,0.669,0.963,0.611,1.192,0.855,0.387,0.675,0.637,�k�k��,6.2,��
2020/11/07,22:50,0.671,0.964,0.612,1.192,0.857,0.387,0.675,0.634,�k�k��,7.4,�L
2020/11/07,23:00,0.671,0.962,0.613,1.191,0.856,0.388,0.674,0.634,�k�k��,7.3,�L
2020/11/07,23:10,0.671,0.961,0.613,1.191,0.856,0.389,0.674,0.635,�k�k��,7.6,��
2020/11/07,23:20,0.668,0.963,0.612,1.191,0.855,0.387,0.671,0.637,�k,8.1,�L
2020/11/07,23:30,0.671,0.961,0.613,1.193,0.858,0.388,0.674,0.635,�k,8.1,�L
2020/11/07,23:40,0.670,0.961,0.614,1.193,0.855,0.388,0.675,0.634,�k,6.9,�L
2020/11/07,23:50,0.669,0.961,0.611,1.192,0.857,0.387,0.675,0.638,�k,7.0,��
